Change the Weather History Date:

Wednesday, October 12, 2011

  Actual Average Record
Temperature  
Mean Temperature 55 °F 47 °F  
Max Temperature 67 °F 60 °F 88 °F (1906)
Min Temperature 42 °F 34 °F 10 °F (1917)
Degree Days  
Heating Degree Days 10 18  
Month to date heating degree days 73 191  
Since 1 July heating degree days 300 477  
Cooling Degree Days 0 0  
Month to date cooling degree days 14 0  
Year to date cooling degree days 425 519  
Growing Degree Days 5 (Base 50)    
Moisture  
Dew Point 43 °F    
Average Humidity 66    
Maximum Humidity 89    
Minimum Humidity 42    
Precipitation  
Precipitation T in 0.04 in 0.84 in (2008)
Month to date precipitation 1.05 0.51  
Year to date precipitation 22.39 15.91  
Snow  
Snow 0.00 in 0.00 in 0.60 in (2009)
Month to date snowfall 0.0 0.3  
Since 1 July snowfall 0.0 0.5  
Since 1 September snowfall 0.0 0.5  
Snow Depth 0.00 in    
Sea Level Pressure  
Sea Level Pressure 29.77 in    
Wind  
Wind Speed 9 mph (WNW)    
Max Wind Speed 23 mph    
Max Gust Speed 31 mph    
Visibility 10 miles    
Events      
T = Trace of Precipitation, MM = Missing Value Source: NWS Daily Summary

Daily Weather History Graph

Daily Weather History Graph

Search for Another Location

Airport or City:

Trip Planner

Search our weather history database for the weather conditions in past years. The results will help you decide how hot, cold, wet, or windy it might be!

Date:

Astronomy

Oct. 12, 2011 Rise Set
Actual Time 7:56 AM CDT 7:01 PM CDT
Civil Twilight 7:25 AM CDT 7:32 PM CDT
Nautical Twilight 6:50 AM CDT 8:07 PM CDT
Astronomical Twilight 6:15 AM CDT 8:42 PM CDT
Moon 6:57 PM CDT (10/12) 8:39 AM CDT (10/12)
Length of Visible Light 12h 06m
Length of Day
11h 05m
Full, 100% of the Moon is Illuminated
Oct 12
Full
Oct 19
Last Quarter
Oct 26
New
Nov 2
First Quarter
Nov 10
Full

Hourly Weather History & Observations

Time (CDT) Temp. Dew Point Humidity Pressure Visibility Wind Dir Wind Speed Gust Speed Precip Events Conditions
12:52 AM 44.1 °F 41.0 °F 89% 29.67 in 10.0 mi Calm Calm - N/A   Clear
1:52 AM 46.0 °F 43.0 °F 89% 29.67 in 10.0 mi Calm Calm - N/A   Clear
2:52 AM 51.1 °F 44.1 °F 77% 29.68 in 10.0 mi WNW 8.1 mph - N/A   Clear
3:52 AM 50.0 °F 44.1 °F 80% 29.69 in 10.0 mi West 5.8 mph - N/A   Scattered Clouds
4:52 AM 52.0 °F 45.0 °F 77% 29.70 in 10.0 mi SW 3.5 mph - 0.00 in   Overcast
5:52 AM 52.0 °F 46.9 °F 83% 29.71 in 10.0 mi West 4.6 mph - 0.00 in   Overcast
6:52 AM 50.0 °F 45.0 °F 83% 29.72 in 10.0 mi WNW 5.8 mph - N/A   Clear
7:52 AM 48.9 °F 44.1 °F 83% 29.74 in 10.0 mi West 5.8 mph - N/A   Scattered Clouds
8:52 AM 48.2 °F 42.8 °F 82% 29.76 in 10.0 mi West 9.2 mph - N/A   Partly Cloudy
9:52 AM 53.1 °F 43.0 °F 69% 29.79 in 10.0 mi WNW 12.7 mph - N/A   Clear
10:52 AM 57.0 °F 43.0 °F 59% 29.79 in 10.0 mi WNW 13.8 mph 24.2 mph N/A   Clear
11:52 AM 60.1 °F 42.1 °F 51% 29.79 in 10.0 mi West 24.2 mph 28.8 mph N/A   Clear
12:52 PM 64.0 °F 44.1 °F 48% 29.79 in 10.0 mi WNW 13.8 mph 25.3 mph N/A   Clear
1:52 PM 64.9 °F 43.0 °F 45% 29.78 in 10.0 mi WNW 16.1 mph 23.0 mph N/A   Clear
2:52 PM 66.0 °F 43.0 °F 43% 29.77 in 10.0 mi WNW 16.1 mph 21.9 mph N/A   Clear
3:52 PM 66.9 °F 42.1 °F 40% 29.76 in 10.0 mi NW 19.6 mph 31.1 mph N/A   Clear
4:52 PM 66.9 °F 42.1 °F 40% 29.78 in 10.0 mi NW 11.5 mph 24.2 mph N/A   Clear
5:52 PM 64.9 °F 42.1 °F 43% 29.79 in 10.0 mi WNW 12.7 mph 17.3 mph N/A   Clear
6:52 PM 61.0 °F 42.1 °F 50% 29.82 in 10.0 mi NW 10.4 mph - N/A   Clear
7:52 PM 57.0 °F 42.1 °F 57% 29.84 in 10.0 mi NNW 8.1 mph - N/A   Clear
8:52 PM 53.6 °F 42.8 °F 67% 29.83 in 10.0 mi West 4.6 mph - N/A   Clear
9:52 PM 53.6 °F 42.8 °F 67% 29.84 in 10.0 mi WNW 6.9 mph - N/A   Clear
10:52 PM 51.1 °F 42.1 °F 71% 29.85 in 10.0 mi NW 5.8 mph - N/A   Clear
11:52 PM 48.0 °F 42.1 °F 80% 29.87 in 10.0 mi NW 3.5 mph - N/A   Scattered Clouds